Regional Weather Roundup
Issued by NWS

Home | Current Version | Previous Version | Text Only | Print | Product List | Glossary On
Versions: 1 2 3 4 5 6 7 8 9 10 11 12 13 14 15 16 17 18 19 20 21 22 23 24 25 26 27 28 29 30 31 32 33 34 35 36 37 38 39 40 41 42 43 44 45 46 47 48 49 50
000
ASUS43 KMKX 160900
RWRWI

WISCONSIN REGIONAL WEATHER ROUNDUP
NATIONAL WEATHER SERVICE MILWAUKEE/SULLIVAN WI
400 AM CDT WED APR 16 2014

NOTE: "FAIR" INDICATES FEW OR NO CLOUDS BELOW 12,000 FEET WITH NO
SIGNIFICANT WEATHER AND/OR OBSTRUCTIONS TO VISIBILITY.

WIZ001-002-006>008-014>016-023>028-161000-
NORTHWEST WISCONSIN

CITY           SKY/WX    TMP DP  RH WIND       PRES   REMARKS
SUPERIOR ARPT  CLOUDY    25  12  57 NE5       30.13S WCI  20
ASHLAND        CLOUDY    21   9  59 CALM      30.15S
HAYWARD        CLOUDY    25   8  48 E5        30.11S WCI  19
SIREN          CLOUDY    29  10  45 SE3       30.08F
RICE LAKE      NOT AVBL
LADYSMITH      CLOUDY    27  18  67 E5        30.13S WCI  22
EAU CLAIRE     LGT SNOW  28  25  88 E8        30.11F FOG     WCI  20
MENOMONIE      LGT SNOW  30  24  77 E8        30.11S WCI  23
NEW RICHMOND   LGT SNOW  28  25  86 E9        30.07F WCI  20
OSCEOLA        LGT SNOW  29  28  99 E9        30.11R WCI  20
$$

WIZ003>005-009-010-017-018-161000-
NORTH CENTRAL WISCONSIN

CITY           SKY/WX    TMP DP  RH WIND       PRES   REMARKS
WOODRUFF       PTCLDY    17   5  59 E3        30.13S
RHINELANDER    CLOUDY    11   6  81 CALM      30.14R
EAGLE RIVER    PTCLDY     8   4  84 CALM      30.14R
LAND O LAKES   PTCLDY     1  -2  84 CALM      30.14S
PHILLIPS       CLOUDY    21   9  60 E3        30.11S
TOMAHAWK       CLOUDY    16  13  86 CALM      30.14R
MEDFORD        CLOUDY    25  18  74 SE5       30.12R WCI  19
MERRILL        CLOUDY    18  15  87 CALM      30.15R
$$

WIZ029-030-035-036-043>047-161000-
CENTRAL WISCONSIN

CITY           SKY/WX    TMP DP  RH WIND       PRES   REMARKS
WAUSAU         CLOUDY    22  16  78 E3        30.15R
MOSINEE        PTCLDY    21  18  86 SE5       30.16S WCI  15
MARSHFIELD     CLOUDY    27  16  63 SE8       30.14R WCI  19
STEVENS POINT  CLOUDY    19  14  82 CALM      30.17S
WAUPACA        PTCLDY    25  19  80 CALM      30.20S
WAUTOMA        NOT AVBL
WISC RAPIDS    CLOUDY    26  17  68 SE7       30.18R WCI  18
CAMP DOUGLAS   NOT AVBL
$$

WIZ011>013-019>022-031-037>040-048>050-161000-
NORTHEAST WISCONSIN

CITY           SKY/WX    TMP DP  RH WIND       PRES   REMARKS
ANTIGO         MOCLDY    19  13  75 S5        30.15S WCI  12
STURGEON BAY   CLEAR     25  14  63 S6        30.23R WCI  18
GREEN BAY      CLEAR     25  21  85 S5        30.22S WCI  19
MANITOWOC      NOT AVBL
APPLETON       MOCLDY    27  19  74 S5        30.21S WCI  21
CLINTONVILLE   PTCLDY    25  21  86 S3        30.20R
OSHKOSH        CLOUDY    28  20  71 SE7       30.20F WCI  21
$$

WIZ032>034-041-042-053>061-161000-
SOUTHWEST WISCONSIN

CITY           SKY/WX    TMP DP  RH WIND       PRES   REMARKS
LA CROSSE      CLOUDY    33  17  51 SE9       30.11F WCI  25
SPARTA         CLOUDY    30  19  63 E6        30.14S WCI  24
VIROQUA        PTSUNNY   29  20  69 E8        30.10S WCI  21
BOSCOBEL       PTCLDY    31  18  58 E5        30.14F WCI  26
PRAIRIE DU CHI PTCLDY    32  19  59 E8        30.11F WCI  25
PLATTEVILLE    FAIR      29  21  71 E9        30.14R WCI  21
$$

WIZ056-057-062-063-064-067-068-161000-
SOUTH CENTRAL WISCONSIN

CITY           SKY/WX    TMP DP  RH WIND       PRES   REMARKS
BARABOO/DELLS  CLOUDY    29  19  67 E7        30.15F WCI  22
LONE ROCK      NOT AVBL
WATERTOWN      CLOUDY    27  23  86 E6        30.20R WCI  20
MADISON        CLOUDY    29  20  69 SE8       30.18S WCI  21
MIDDLETON      FAIR      30  21  68 SE3       30.17S
MONROE         CLEAR     28  19  69 SE7       30.15S WCI  20
JANESVILLE     CLEAR     28  23  80 SE5       30.19R WCI  23
$$

WIZ051-052-058>065-066-070>072-161000-
SOUTHEAST WISCONSIN

CITY           SKY/WX    TMP DP  RH WIND       PRES   REMARKS
MILWAUKEE      PTCLDY    27  22  81 S5        30.24R WCI  22
WAUKESHA       PTCLDY    23  21  93 CALM      30.23R
MILWAUKEE/TIMM PTCLDY    25  19  80 CALM      30.24R
RACINE         CLEAR     29  22  75 CALM      30.25R
BURLINGTON     CLEAR     22  21  97 CALM      30.22R
KENOSHA        PTCLDY    27  20  75 S3        30.23R
FOND DU LAC    CLOUDY    27  21  78 SE6       30.21S WCI  20
SHEBOYGAN      CLOUDY    24  21  88 CALM      30.23S
WEST BEND      PTCLDY    23  19  86 CALM      30.22S
JUNEAU         MOCLDY    27  20  74 E7        30.21S WCI  20
$$

LSZ147-162-161000-
LAKE SUPERIOR

STATION/POSITION TIME  TEMP    WIND        PRES    WAVE
                       AIR SEA DIR/SP/G            HT/PER
                 (UTC) (F)     (DEG/KT/KT) (MB)    (FT/S)
DEVILS ISLAND    0800   28        CALM     1022.2S
PORT WING        0800   24      40/  3/  3 1020.7S
SAXON HARBOR     0840          190/  3/  6 1021.3R
$$

LMZ867-665-643>646-161000-
LAKE MICHIGAN

STATION/POSITION TIME  TEMP    WIND        PRES    WAVE
                       AIR SEA DIR/SP/G            HT/PER
                 (UTC) (F)     (DEG/KT/KT) (MB)    (FT/S)
NORTHPORT PIER   0800   28     130/  8/  9 1023.4S
SISTER BAY       0823   24        CALM       N/A
KEWAUNEE LAKESHO 0800   25     220/  5/  6 1024.2R
SHEBOYGAN LAKESH 0800   32     210/  7/  8 1024.9R
PORT WASHINGTON  0800   33     160/  9/ 11 1024.4S
MILWAUKEE LAKESH 0800   33     150/  5/  9   N/A
KENOSHA   LAKESH 0800   33     170/  5/  7   N/A
$$

TC  - TEMPERATURE IN CELSIUS
VSB - VISIBILITY IN STATUTE MILES
WCI - WIND CHILL INDEX
HX  - HEAT INDEX




USA.gov is the U.S. government's official web portal to all federal, state and local government web resources and services.